{"data":{"norad_id":23439,"epoch":"2026-09-20T04:34:32.320704Z","epoch_age_seconds":37792,"freshness":"FRESH","line1":"1 23439U 94085A   26263.19065186 -.00000041  00000+0  32523-4 0  9996","line2":"2 23439  64.8154 149.5686 0159270 346.8269  12.8520 11.27583932306617","mean_motion":11.27583932,"eccentricity":0.015927,"inclination_deg":64.8154,"raan_deg":149.5686,"arg_perigee_deg":346.8269,"mean_anomaly_deg":12.852,"bstar":3.2523e-5,"rev_number":30661,"period_min":127.7066796656,"perigee_km":1888.519750939,"apogee_km":2156.1077084832,"semimajor_km":8400.4507297111,"source":"CELESTRAK","updated_at":"2026-09-20T09:00:45.227445Z"}}